Вернуться в каталог

STARLINK-33760

АктивенСвязьVLEO
NORAD 63764·PAYLOAD·🇺🇸 United States

Запущен Apr 29, 2025 с Cape Canaveral Space Force Station

Loading…

Ближайшие Пролёты (ближайшие 24 часа)

TLE

СвежийSource: CelesTrak SupGP

Эпоха: Sep 15, 2026, 03:25 UTC

1 63764C 25089P   26258.14284722 -.00031007  00000+0 -11229-2 0  2580
2 63764  43.0045  55.4249 0001653 269.9688 338.5593 15.27600397    13

Отслеживайте STARLINK-33760 в реальном времени с AllMySat

Download on the App Store